Regional Weather Roundup
Issued by NWS

Home | Current Version | Previous Version | Graphics & Text | Print | Product List | Glossary On
Versions: 1 2 3 4 5 6 7 8 9 10 11 12 13 14 15 16 17 18 19 20 21 22 23 24 25 26 27 28 29 30 31 32 33 34 35 36 37 38 39 40 41 42 43 44 45 46 47 48 49 50
000
ASUS43 KMPX 241010
RWRMN
WEATHER ROUNDUP FOR MINNESOTA
NATIONAL WEATHER SERVICE TWIN CITIES/CHANHASSEN MN
500 AM CDT TUE MAY 24 2016


NOTE: "FAIR" INDICATES FEW OR NO CLOUDS BELOW 12,000 FEET WITH NO
SIGNIFICANT WEATHER AND/OR OBSTRUCTIONS TO VISIBILITY. N/A MEANS
CURRENT SKY AND/OR WEATHER CONDITIONS ARE NOT AVAILABLE.

MNZ060>063-068>070-241100-
   Twin Cities Metro

CITY           SKY/WX    TMP DP  RH WIND       PRES   REMARKS
TWIN CITIES    CLOUDY    67  59  75 SW8       29.80R
ST PAUL        MOCLDY    66  60  81 S6        29.80R
CRYSTAL        CLOUDY    65  60  84 S6        29.78S
BLAINE         CLOUDY    64  64 100 S6        29.79S
EDEN PRAIRIE   PTCLDY    66  59  78 SW7       29.80R
SOUTH ST PAUL  MOCLDY    67  60  76 S6        29.80R
LAKE ELMO      CLOUDY    64  61  88 S6        29.81S
$$
MNZ001>005-007-008-013>017-022>024-027-028-241100-
   Northwest Minnesota

CITY           SKY/WX    TMP DP  RH WIND       PRES   REMARKS
BEMIDJI        CLOUDY    59  50  71 S6        29.78R
HALLOCK        MOCLDY    61  52  72 SW8       29.77R
ROSEAU         CLOUDY    55  48  76 CALM      29.75R
WARROAD        CLOUDY    55  50  82 CALM      29.76R
THIEF RVR FALL PTCLDY    59  46  63 NW8       29.80R
CROOKSTON      PTCLDY    57  52  82 NW7       29.80R THUNDER
FOSSTON          N/A     52  46  82 CALM      29.78S
DETROIT LAKES  MOCLDY    59  54  82 S3        29.79R
MOORHEAD       MOCLDY    61  46  59 N18G25    29.80R
PARK RAPIDS    LGT RAIN  60  53  77 SE9       29.79S
MAHNOMEN       PTSUNNY   56  52  86 W7G23     29.79R
$$
MNZ006-009>011-018-025>026-241100-
   North Central Minnesota

CITY           SKY/WX    TMP DP  RH WIND       PRES   REMARKS
BAUDETTE       CLOUDY    53  48  83 CALM      29.77R
FLAG ISLAND    CLOUDY    59  54  82 E3        29.75R
INTL FALLS     FOG       53  53 100 CALM      29.78R VSB 1
WASKISH        CLOUDY    57  55  94 CALM      29.78R
BIG FORK       CLOUDY    61  57  88 CALM      29.80R
LONGVILLE      CLOUDY    57  55  94 CALM      29.80F
GRAND RAPIDS     N/A    N/A N/A N/A MISG        N/A
CRANE LAKE     CLOUDY    55  55 100 CALM      29.81S
ORR            CLOUDY    57  55  94 CALM      29.77F
COOK           MOCLDY    57  55  94 CALM      29.80F
WALKER         CLOUDY    56  54  91 W8        29.80R
$$
MNZ012-019>021-037-241100-
   Northeast Minnesota

CITY           SKY/WX    TMP DP  RH WIND       PRES   REMARKS
DULUTH         CLOUDY    59  58  96 SE7       29.81F THUNDER
ELY            CLOUDY    55  55 100 SE3       29.82S
HIBBING        CLOUDY    58  57  97 SE7       29.80S
EVELETH        CLOUDY    57  55  94 CALM      29.82F
DULUTH HARBOR  CLOUDY    54  54 100 E7        29.82S THUNDER FOG
TWO HARBORS    CLOUDY    63  57  82 CALM      29.81S
SILVER BAY     LGT RAIN  61  57  88 CALM      29.82R
GRAND MARAIS     N/A     50  48  93 VRB3      29.81R
G MARAIS ARPRT DRIZZLE   57  54  88 CALM      29.83S
$$
MNZ029>031-032-039>041-046>048-054>057-064-241100-
   West Central Minnesota

CITY           SKY/WX    TMP DP  RH WIND       PRES   REMARKS
FERGUS FALLS   MOCLDY    61  54  77 CALM      29.74R
WHEATON        PTCLDY    55  54  94 NW5       29.80R
MORRIS         CLEAR     55  54  94 CALM      29.77R
ALEXANDRIA     LGT RAIN  56  54  93 SW6       29.79R
ELBOW LAKE     MOCLDY    56  54  94 SE3       29.78R
WADENA         MOCLDY    61  61 100 NE6       29.79R
GLENWOOD       FOG       55  55 100 S5        29.79S VSB 1/4
APPLETON       CLEAR     55  54  94 CALM      29.77R FOG
BENSON         FOG       54  52  94 CALM      29.78S VSB 1/4
ORTONVILLE     PTCLDY    57  54  88 CALM      29.77R
MADISON        CLEAR     59  57  94 SW3       29.77R FOG
WILLMAR        FOG       57  57 100 SE3       29.81R VSB<1/4
$$
MNZ033>034-036-042>043-049>051-058-059-241100-
   Central Minnesota

CITY           SKY/WX    TMP DP  RH WIND       PRES   REMARKS
ST CLOUD       PTCLDY    59  59 100 S5        29.79R FOG
SAUK CENTRE    FAIR      57  55  94 S5        29.79R
PAYNESVILLE    CLEAR     60  60 100 CALM      29.80R FOG
AITKIN         CLOUDY    63  57  82 CALM      29.78S HAZE
PINE RIVER     CLOUDY    61  54  77 NE9       29.83S
BRAINERD       CLOUDY    61  60  97 CALM      29.80S
STAPLES        CLOUDY    61  59  94 CALM      29.79S
LONG PRAIRIE   FAIR      55  55 100 CALM      29.79R FOG
LITTLE FALLS   FOG       59  57  94 CALM      29.79R VSB 1/2
LITCHFIELD     CLEAR     63  63 100 CALM      29.81R FOG
BUFFALO        PTCLDY    62  60  91 CALM      29.81R
MAPLE LAKE     CLEAR     63  62  97 CALM      29.81R FOG
HUTCHINSON     MOCLDY    63  62  97 S3        29.82R FOG
$$
MNZ037-044-045-052-053-241100-
   East Central Minnesota

CITY           SKY/WX    TMP DP  RH WIND       PRES   REMARKS
PRINCETON      CLOUDY    64  63  94 S6        29.79R
MORA           CLOUDY    59  57  94 CALM      29.81S
CAMBRIDGE      CLOUDY    64  57  77 S3        29.78R
RUSH CITY      CLOUDY    61  59  94 CALM      29.80R
MOOSE LAKE     CLOUDY    59  57  94 CALM      29.77F
HINCKLEY       CLOUDY    61  61 100 CALM      29.79F
CLOQUET        CLOUDY    59  57  94 CALM      29.80F
MCGREGOR       CLOUDY    59  57  94 CALM      29.80S
$$
MNZ071>073-080-081-089-090-097-098-241100-
   Southwest Minnesota

CITY           SKY/WX    TMP DP  RH WIND       PRES   REMARKS
MONTEVIDEO     CLEAR     59  55  88 CALM      29.79R FOG
GRANITE FALLS  FOG       58  57  96 SE7       29.81R VSB 1/2
CANBY          CLEAR     64  62  91 SW6       29.79R
MARSHALL       CLOUDY    61  61 100 SW8       29.81R FOG
REDWOOD FALLS  CLOUDY    62  61  96 S7        29.81R FOG
OLIVIA           N/A     55  55 100 S7        29.80R FOG
PIPESTONE      FOG       63  61  94 S6        29.82R VSB 1
WINDOM         CLEAR     61  59  94 S8        29.84R
WORTHINGTON    CLEAR     61  60  97 S14       29.83R
JACKSON        PTCLDY    63  59  88 S9        29.85R
TRACY          PTCLDY    63  63 100 SW13      29.82R
SLAYTON        CLOUDY    62  62 100 S10G17    29.83R FOG
$$
MNZ065>067-074>077-082>085-091>093-241100-
   South Central Minnesota

CITY           SKY/WX    TMP DP  RH WIND       PRES   REMARKS
MANKATO        PTCLDY    64  57  77 S10       29.83R
NEW ULM        PTCLDY    61  61 100 S9        29.82R
ST JAMES       CLOUDY    57  55  94 S7        29.84R
FAIRMONT       PTCLDY    63  59  88 SW10      29.84R
GLENCOE        CLOUDY    64  63  94 S5        29.80R
FARIBAULT      CLOUDY    64  61  88 S3        29.83R
OWATONNA       MOCLDY    64  59  82 S7        29.84R
WASECA         CLOUDY    63  59  88 S7        29.86R
ALBERT LEA     PTCLDY    64  61  88 SW6       29.85R
$$
MNZ078>079-086>088-094>096-241100-
   Southeast Minnesota

CITY           SKY/WX    TMP DP  RH WIND       PRES   REMARKS
ROCHESTER      CLOUDY    65  61  87 S12       29.83F
RED WING       CLOUDY    64  63  94 CALM      29.82R
STANTON        CLOUDY    65  59  81 S3        29.81R
DODGE CENTER   CLOUDY    64  61  88 SW13      29.84R
WINONA         CLOUDY    63  61  94 CALM      29.84S
AUSTIN         MOCLDY    64  59  82 S10       29.85R
PRESTON        CLOUDY    61  58  90 S6        29.87R
$$
ABBREVIATIONS USED IN REMARKS
   TC - TEMPERATURES IN CELSIUS
  WCI - WIND CHILL INDEX
   HX - HEAT INDEX
  VSB - VISIBILITY
$$



USA.gov is the U.S. government's official web portal to all federal, state and local government web resources and services.